Back to catalog

COSMOS 249 DEB

AliveLEO
NORAD 20011·DEBRIS·🇷🇺 Russia

Launched Oct 20, 1968 from Baikonur Cosmodrome

Loading…

Next Passes (next 24 hours)

TLE

FreshSource: Space-Track

Epoch: Sep 14, 2026, 06:20 UTC

1 20011U 68091DN  26257.26427941  .00001376  00000-0  15257-2 0  9994
2 20011  62.2229 204.0759 0630276 327.9943  28.4181 13.11285888654584

Track COSMOS 249 DEB in real time with AllMySat

Download on the App Store